Bookmark and Share
Track history (hours):
 

Salishan

More information available from US FCC via Universal Licensing System and Coast Guard Vessel Documentation Center.

Last reported at 2014-Mar-31 22:17 UTC. Time now 2014-Apr-20 08:56 UTC.
Position N 37°31' W 123°10'.
Warning: this ship's position is 19 days out of date.

MMSI: 367007912.

NotesDate/timePositionNaut miles runAvg speedWind from/ knotsBaromVisibWave heightAir tempDewpointWater temp
2014-Mar-31 22:17N 37°31' W 123°10'4 5.5
2014-Mar-31 21:32N 37°34' W 123°05'5 5.4
2014-Mar-31 20:33N 37°37' W 122°60'5 5.2
2014-Mar-31 19:33N 37°39' W 122°54'6 5.7
2014-Mar-31 18:33N 37°43' W 122°48'6 5.7
2014-Mar-31 17:25N 37°44' W 122°40'5 5.4
2014-Mar-31 16:32N 37°47' W 122°35'6 6.0
2014-Mar-31 15:33N 37°49' W 122°28'5 4.8
2014-Mar-31 14:33N 37°53' W 122°25'2 1.5
2014-Mar-31 13:31N 37°55' W 122°26'0 0.0
2014-Mar-31 12:31N 37°55' W 122°26'0 0.0
2014-Mar-31 11:33N 37°55' W 122°26'0 0.0
2014-Mar-31 10:34N 37°55' W 122°26'0 0.0
2014-Mar-31 09:33N 37°55' W 122°26'1 1.2
2014-Mar-31 08:33N 37°55' W 122°25'0 0.4
2014-Mar-31 07:32N 37°55' W 122°24'0 0.0
2014-Mar-30 08:17N 37°55' W 122°25'0 0.0
2014-Mar-30 07:29N 37°55' W 122°25'0 0.0
2014-Mar-30 01:31N 37°55' W 122°25'0 0.3
2014-Mar-30 00:33N 37°55' W 122°25'1 1.2
2014-Mar-29 23:31N 37°55' W 122°26'0 0.0
2014-Mar-29 22:31N 37°55' W 122°26'0 0.0
2014-Mar-29 21:31N 37°55' W 122°26'0 0.0
2014-Mar-29 20:31N 37°55' W 122°26'0 0.1
2014-Mar-29 19:31N 37°55' W 122°26'0 0.0
2014-Mar-29 18:34N 37°55' W 122°26'0 0.0
2014-Mar-29 17:30N 37°55' W 122°26'3 2.7
2014-Mar-29 16:33N 37°52' W 122°25'5 5.2
2014-Mar-29 15:33N 37°49' W 122°30'8 7.8
2014-Mar-29 14:33N 37°46' W 122°39'6 5.2
2014-Mar-29 13:27N 37°47' W 122°46'6 5.0
2014-Mar-29 12:11N 37°49' W 122°53'3 5.4
2014-Mar-29 11:33N 37°51' W 122°57'6 5.7
2014-Mar-29 10:33N 37°54' W 123°04'6 5.8
2014-Mar-29 09:33N 37°57' W 123°10'6 5.6
2014-Mar-29 08:33N 38°01' W 123°15'5 5.4
2014-Mar-29 07:33N 38°05' W 123°19'5 5.4
2014-Mar-29 06:33N 38°08' W 123°25'6 6.0
2014-Mar-29 05:33N 38°11' W 123°32'6 5.7
2014-Mar-29 04:33N 38°14' W 123°38'6 6.4
2014-Mar-29 03:33N 38°19' W 123°43'6 5.9
2014-Mar-29 02:33N 38°23' W 123°48'5 5.2
2014-Mar-29 01:33N 38°27' W 123°53'  
2014-Mar-26 15:32N 38°28' W 123°55'7 7.3
2014-Mar-26 14:33N 38°22' W 123°49'7 7.3
2014-Mar-26 13:33N 38°17' W 123°42'7 6.8
2014-Mar-26 12:33N 38°14' W 123°35'7 7.1
2014-Mar-26 11:33N 38°11' W 123°26'7 7.1
2014-Mar-26 10:33N 38°08' W 123°18'8 7.8
2014-Mar-26 09:33N 38°02' W 123°12'8 7.9
2014-Mar-26 08:33N 37°57' W 123°04'8 7.9
2014-Mar-26 07:33N 37°53' W 122°55'24 3.4
2014-Mar-26 00:23N 37°55' W 122°25'0 0.0
2014-Mar-25 23:11N 37°55' W 122°25'0 0.0
2014-Mar-25 22:17N 37°55' W 122°25'0 0.0
2014-Mar-25 21:29N 37°55' W 122°25'0 0.0
2014-Mar-25 19:29N 37°55' W 122°25'0 0.0
2014-Mar-25 17:29N 37°55' W 122°25'0 0.0
2014-Mar-25 15:17N 37°55' W 122°25'0 0.0
2014-Mar-25 14:29N 37°55' W 122°25'0 0.0
2014-Mar-25 13:23N 37°55' W 122°25'0 0.0
2014-Mar-25 09:17N 37°55' W 122°25'0 0.0
2014-Mar-25 08:23N 37°55' W 122°25'0 0.0
2014-Mar-25 07:29N 37°55' W 122°25'0 0.0
2014-Mar-25 05:29N 37°55' W 122°25'0 0.0
2014-Mar-25 03:29N 37°55' W 122°25'0 0.0
2014-Mar-25 02:05N 37°55' W 122°25'0 0.0
2014-Mar-25 01:32N 37°55' W 122°25'9 1.0
2014-Mar-24 17:01N 37°46' W 122°23'7 0.2
2014-Mar-22 20:33N 37°53' W 122°24'110.3
2014-Mar-22 20:25N 37°52' W 122°24'5 1.9
2014-Mar-22 17:33N 37°46' W 122°23'0 0.0
2014-Mar-22 15:33N 37°46' W 122°23'0 0.0
2014-Mar-22 14:33N 37°46' W 122°23'0 0.0
2014-Mar-22 13:33N 37°46' W 122°23'0 0.0
2014-Mar-22 12:33N 37°46' W 122°23'0 0.0
2014-Mar-22 11:33N 37°46' W 122°23'0 0.0
2014-Mar-22 10:33N 37°46' W 122°23'0 0.0
2014-Mar-22 09:33N 37°46' W 122°23'0 0.0
2014-Mar-22 08:33N 37°46' W 122°23'0 0.0
2014-Mar-22 07:33N 37°46' W 122°23'0 0.0
2014-Mar-22 06:33N 37°46' W 122°23'0 0.0
2014-Mar-22 05:33N 37°46' W 122°23'0 0.0
2014-Mar-22 04:33N 37°46' W 122°23'0 0.0
2014-Mar-22 03:33N 37°46' W 122°23'0 0.0
2014-Mar-22 02:33N 37°46' W 122°23'0 0.0
2014-Mar-22 01:33N 37°46' W 122°23'0 0.0
2014-Mar-22 00:33N 37°46' W 122°23'0 0.0
2014-Mar-21 23:33N 37°46' W 122°23'0 0.0
2014-Mar-21 22:33N 37°46' W 122°23'  

Dump ship's entire track history

sailing weather and tide predictions

Salishan — WUT4384 — position and weather